Accueil
METAR-TAF:

METAR-TAF

Aéroports :

Aéroport de Vannes

Vannes, France

latitude: 47-43-19N, longitude: 2-43-41W, altitude: 130 m

Observation

Le bulletin a été fait il y a 25 minutes, à 02:00 UTC
Vent 5 kt de nord
Température 13°C
Humidité 94%
Pression 1024 hPa
Visibilité 10 km ou plus
pas de nuages en-dessous de 1500 mètres et pas de cumulonimbus.

METAR: LFRV 190200Z AUTO 35005KT CAVOK 13/12 Q1024

Heure: 04:25 (02:25 UTC)


TAF: absent

Observations et prévisions météorologiques de plus de 4000 aéroports (messages METAR et TAF).

Les stations disponibles sont représentées par des disques jaunes et rouges sur la carte.

Passer la souris dessus pour voir le nom de la station.

Cliquer dessus pour voir les observations et prévisions météorologiques.

Pour changer de carte: cliquez sur les boutons verts avec une croix noire pour zoomer, sur le bouton vert avec un tiret pour effectuer un zoom arrière, ou sur les flèches vertes pour les cartes adjacentes.


METAR-TAF: